Track IRIDIUM 102 now! 10-day predictions IRIDIUM 102 is classified as:
1 41920U 17003D 24252.72187515 .00000210 00000-0 67808-4 0 9994 2 41920 86.4031 358.5664 0002210 94.8628 265.2820 14.34217143400626